| time (UTC) | temp C | wind direction | speed KPH | gust KPH | rain 1hr cm | rain 24hr cm | rain mn cm | humidity % | barometer mb |
| 20260831035342 | 21 | 20 | 4.8 | 14.5 | 0.00 | 0.00 | 0.00 | 57 | 1027.8 |
| 20260831034341 | 21 | 67 | 6.4 | 12.9 | 0.00 | 0.00 | 0.00 | 56 | 1027.8 |
| 20260831033340 | 21 | 50 | 8.0 | 14.5 | 0.00 | 0.00 | 0.00 | 56 | 1027.8 |
| 20260831032338 | 21 | 48 | 8.0 | 14.5 | 0.00 | 0.00 | 0.00 | 56 | 1028.1 |
| 20260831031336 | 21 | 65 | 6.4 | 12.9 | 0.00 | 0.00 | 0.00 | 55 | 1028.1 |
| 20260831030335 | 21 | 99 | 4.8 | 12.9 | 0.00 | 0.00 | 0.00 | 53 | 1028.1 |
| 20260831025333 | 20 | 95 | 4.8 | 11.3 | 0.00 | 0.00 | 0.00 | 49 | 1028.5 |
| 20260831024332 | 20 | 108 | 4.8 | 11.3 | 0.00 | 0.00 | 0.00 | 47 | 1028.5 |
| 20260831023331 | 20 | 97 | 4.8 | 14.5 | 0.00 | 0.00 | 0.00 | 48 | 1028.8 |
| 20260831022330 | 20 | 97 | 3.2 | 9.7 | 0.00 | 0.00 | 0.00 | 48 | 1028.8 |
| 20260831021328 | 20 | 98 | 4.8 | 11.3 | 0.00 | 0.00 | 0.00 | 50 | 1029.2 |
| 20260831020327 | 21 | 113 | 3.2 | 9.7 | 0.00 | 0.00 | 0.00 | 54 | 1029.2 |
| 20260831015254 | 21 | 110 | 3.2 | 6.4 | 0.00 | 0.00 | 0.00 | 56 | 1029.5 |
| 20260831014253 | 21 | 103 | 3.2 | 6.4 | 0.00 | 0.00 | 0.00 | 56 | 1029.5 |
| 20260831013251 | 22 | 133 | 1.6 | 4.8 | 0.00 | 0.00 | 0.00 | 55 | 1029.9 |
| 20260831012250 | 21 | 134 | 1.6 | 4.8 | 0.00 | 0.00 | 0.00 | 56 | 1029.8 |
| 20260831011249 | 20 | 139 | 1.6 | 4.8 | 0.00 | 0.00 | 0.00 | 56 | 1030.2 |
| 20260831010248 | 20 | 145 | 1.6 | 4.8 | 0.00 | 0.00 | 0.00 | 56 | 1030.2 |
| 20260831005246 | 21 | 138 | 3.2 | 3.2 | 0.00 | 0.00 | 0.00 | 56 | 1030.2 |
| 20260831004244 | 20 | 145 | 1.6 | 4.8 | 0.00 | 0.00 | 0.00 | 56 | 1030.5 |
| 20260831003212 | 20 | 131 | 3.2 | 4.8 | 0.00 | 0.00 | 0.00 | 55 | 1030.5 |
| 20260831002210 | 19 | 185 | 1.6 | 4.8 | 0.00 | 0.00 | 0.00 | 53 | 1030.5 |
| 20260831001209 | 20 | 84 | 1.6 | 4.8 | 0.00 | 0.00 | 0.00 | 54 | 1030.5 |
| 20260831000207 | 20 | 75 | 1.6 | 3.2 | 0.00 | 0.00 | 0.00 | 55 | 1030.5 |
| 20260830235206 | 20 | 74 | 1.6 | 3.2 | 0.00 | 0.00 | 0.00 | 54 | 1030.5 |
| 20260830234205 | 19 | 74 | 0.0 | 3.2 | 0.00 | 0.00 | 0.00 | 50 | 1030.5 |
| 20260830233203 | 18 | 74 | 1.6 | 3.2 | 0.00 | 0.00 | 0.00 | 47 | 1030.5 |
| 20260830232202 | 18 | 74 | 3.2 | 3.2 | 0.00 | 0.00 | 0.00 | 43 | 1030.5 |
| 20260830231129 | 17 | 74 | 1.6 | 3.2 | 0.00 | 0.00 | 0.00 | 34 | 1030.5 |
| 20260830230128 | 16 | 74 | 1.6 | 3.2 | 0.00 | 0.00 | 0.00 | 6 | 1030.5 |
| 20260830225055 | 16 | 74 | 1.6 | 3.2 | 0.00 | 0.00 | 0.00 | 1 | 1030.5 |
| 20260830224053 | 16 | 74 | 1.6 | 3.2 | 0.00 | 0.00 | 0.00 | 1 | 1030.8 |
| 20260830223052 | 15 | 74 | 1.6 | 3.2 | 0.00 | 0.00 | 0.00 | 1 | 1030.8 |
| 20260830222050 | 14 | 74 | 1.6 | 3.2 | 0.00 | 0.00 | 0.00 | 1 | 1030.5 |
| 20260830221048 | 13 | 74 | 1.6 | 3.2 | 0.00 | 0.00 | 0.00 | 1 | 1030.5 |
| 20260830220046 | 13 | 74 | 1.6 | 1.6 | 0.00 | 0.00 | 0.00 | 1 | 1030.5 |
| 20260830214943 | 12 | 74 | 1.6 | 1.6 | 0.00 | 0.00 | 0.00 | 1 | 1030.4 |
| 20260830213910 | 11 | 74 | 0.0 | 1.6 | 0.00 | 0.00 | 0.00 | 1 | 1030.1 |
| 20260830212908 | 10 | 74 | 1.6 | 1.6 | 0.00 | 0.00 | 0.00 | 1 | 1030.1 |
| 20260830211906 | 10 | 74 | 0.0 | 1.6 | 0.00 | 0.00 | 0.00 | 1 | 1030.1 |
| 20260830210905 | 10 | 74 | 0.0 | 1.6 | 0.00 | 0.00 | 0.00 | 1 | 1030.1 |
| 20260830205905 | 9 | 74 | 0.0 | 1.6 | 0.00 | 0.00 | 0.00 | 1 | 1030.1 |
| 20260830204902 | 9 | 74 | 1.6 | 1.6 | 0.00 | 0.00 | 0.00 | 1 | 1030.1 |
| 20260830203901 | 8 | 74 | 0.0 | 1.6 | 0.00 | 0.00 | 0.00 | 1 | 1029.8 |
| 20260830202758 | 8 | 74 | 1.6 | 3.2 | 0.00 | 0.00 | 0.00 | 1 | 1029.8 |
| 20260830201757 | 9 | 74 | 1.6 | 3.2 | 0.00 | 0.00 | 0.00 | 1 | 1029.8 |
| 20260830200755 | 9 | 74 | 1.6 | 1.6 | 0.00 | 0.00 | 0.00 | 1 | 1029.8 |
| 20260830195754 | 9 | 74 | 0.0 | 3.2 | 0.00 | 0.00 | 0.00 | 1 | 1029.4 |
| 20260830194752 | 9 | 74 | 1.6 | 3.2 | 0.00 | 0.00 | 0.00 | 1 | 1029.4 |
| 20260830193750 | 10 | 74 | 0.0 | 0.0 | 0.00 | 0.00 | 0.00 | 1 | 1029.4 |
| 20260830192749 | 10 | 74 | 0.0 | 0.0 | 0.00 | 0.00 | 0.00 | 1 | 1029.4 |
| 20260830191748 | 10 | 74 | 0.0 | 0.0 | 0.00 | 0.00 | 0.00 | 1 | 1029.1 |
| 20260830190747 | 10 | 74 | 0.0 | 0.0 | 0.00 | 0.00 | 0.00 | 1 | 1029.1 |
| 20260830185746 | 10 | 74 | 0.0 | 1.6 | 0.00 | 0.00 | 0.00 | 1 | 1029.1 |
| 20260830184744 | 9 | 74 | 0.0 | 1.6 | 0.00 | 0.00 | 0.00 | 1 | 1029.1 |
| 20260830183742 | 9 | 74 | 0.0 | 1.6 | 0.00 | 0.00 | 0.00 | 1 | 1029.1 |
| 20260830182741 | 9 | 74 | 0.0 | 1.6 | 0.00 | 0.00 | 0.00 | 1 | 1028.8 |
| 20260830181739 | 10 | 74 | 0.0 | 1.6 | 0.00 | 0.00 | 0.00 | 1 | 1029.1 |
| 20260830180738 | 9 | 74 | 1.6 | 1.6 | 0.00 | 0.00 | 0.00 | 1 | 1029.1 |
| 20260830175736 | 10 | 74 | 0.0 | 1.6 | 0.00 | 0.00 | 0.00 | 1 | 1029.1 |
| 20260830174735 | 10 | 74 | 0.0 | 4.8 | 0.00 | 0.00 | 0.03 | 1 | 1029.1 |
| 20260830173734 | 10 | 74 | 3.2 | 4.8 | 0.00 | 0.00 | 0.00 | 1 | 1029.1 |
| 20260830172701 | 10 | 74 | 0.0 | 3.2 | 0.00 | 0.00 | 0.00 | 1 | 1029.5 |
| 20260830171700 | 10 | 74 | 0.0 | 3.2 | 0.00 | 0.00 | 0.00 | 1 | 1029.5 |
| 20260830170628 | 10 | 74 | 1.6 | 1.6 | 0.00 | 0.00 | 0.00 | 1 | 1029.1 |
| 20260830165626 | 10 | 74 | 0.0 | 0.0 | 0.00 | 0.00 | 0.00 | 1 | 1029.5 |
| 20260830164625 | 10 | 74 | 0.0 | 0.0 | 0.00 | 0.00 | 0.00 | 1 | 1029.5 |
| 20260830163623 | 10 | 74 | 0.0 | 0.0 | 0.00 | 0.00 | 0.00 | 1 | 1029.5 |
| 20260830162550 | 10 | 74 | 0.0 | 0.0 | 0.00 | 0.00 | 0.00 | 1 | 1029.5 |
| 20260830161549 | 10 | 74 | 0.0 | 0.0 | 0.00 | 0.00 | 0.00 | 1 | 1029.5 |
| 20260830160548 | 10 | 74 | 0.0 | 1.6 | 0.00 | 0.00 | 0.00 | 1 | 1029.8 |
| 20260830155546 | 10 | 74 | 0.0 | 1.6 | 0.00 | 0.00 | 0.00 | 1 | 1029.8 |
| 20260830154545 | 10 | 74 | 0.0 | 1.6 | 0.00 | 0.00 | 0.00 | 1 | 1029.8 |
| 20260830153543 | 10 | 74 | 0.0 | 1.6 | 0.00 | 0.00 | 0.00 | 1 | 1029.8 |
| 20260830152542 | 11 | 74 | 0.0 | 1.6 | 0.00 | 0.00 | 0.00 | 1 | 1029.8 |
| 20260830151541 | 11 | 74 | 1.6 | 3.2 | 0.00 | 0.00 | 0.00 | 1 | 1029.8 |
| 20260830150539 | 11 | 74 | 1.6 | 3.2 | 0.00 | 0.00 | 0.00 | 1 | 1029.8 |
| 20260830145435 | 11 | 74 | 1.6 | 1.6 | 0.00 | 0.00 | 0.00 | 1 | 1029.8 |
| 20260830144434 | 11 | 74 | 0.0 | 1.6 | 0.00 | 0.00 | 0.00 | 1 | 1030.2 |
| 20260830143432 | 11 | 77 | 0.0 | 0.0 | 0.00 | 0.00 | 0.00 | 1 | 1030.2 |
| 20260830142431 | 11 | 77 | 0.0 | 0.0 | 0.00 | 0.00 | 0.00 | 1 | 1030.2 |
| 20260830141429 | 11 | 77 | 0.0 | 0.0 | 0.00 | 0.00 | 0.00 | 1 | 1030.2 |
| 20260830140428 | 11 | 77 | 0.0 | 3.2 | 0.00 | 0.00 | 0.00 | 1 | 1029.8 |
| 20260830135427 | 11 | 77 | 0.0 | 3.2 | 0.00 | 0.00 | 0.00 | 1 | 1029.8 |
| 20260830134425 | 12 | 77 | 1.6 | 3.2 | 0.00 | 0.00 | 0.00 | 1 | 1030.1 |
| 20260830133423 | 12 | 77 | 1.6 | 3.2 | 0.00 | 0.00 | 0.00 | 1 | 1029.8 |
| 20260830132422 | 12 | 77 | 1.6 | 1.6 | 0.00 | 0.00 | 0.00 | 1 | 1029.8 |
| 20260830131350 | 12 | 77 | 0.0 | 1.6 | 0.00 | 0.00 | 0.00 | 1 | 1030.2 |
| 20260830130348 | 12 | 77 | 0.0 | 0.0 | 0.00 | 0.00 | 0.00 | 1 | 1030.2 |
| 20260830125347 | 12 | 77 | 0.0 | 1.6 | 0.00 | 0.00 | 0.00 | 1 | 1030.2 |
| 20260830124243 | 12 | 77 | 0.0 | 4.8 | 0.00 | 0.00 | 0.00 | 1 | 1030.2 |
| 20260830123242 | 12 | 77 | 1.6 | 4.8 | 0.00 | 0.00 | 0.00 | 1 | 1030.1 |
| 20260830122240 | 12 | 8 | 0.0 | 1.6 | 0.00 | 0.00 | 0.00 | 1 | 1029.8 |
| 20260830121239 | 12 | 8 | 1.6 | 1.6 | 0.00 | 0.00 | 0.00 | 1 | 1029.8 |
| 20260830120206 | 12 | 8 | 1.6 | 1.6 | 0.00 | 0.00 | 0.00 | 1 | 1029.8 |
| 20260830115205 | 12 | 8 | 1.6 | 1.6 | 0.00 | 0.00 | 0.00 | 1 | 1029.8 |
| 20260830114204 | 12 | 8 | 0.0 | 1.6 | 0.00 | 0.00 | 0.00 | 1 | 1029.8 |
| 20260830113131 | 12 | 8 | 1.6 | 1.6 | 0.00 | 0.00 | 0.00 | 1 | 1029.8 |
| 20260830112129 | 13 | 8 | 0.0 | 0.0 | 0.00 | 0.00 | 0.00 | 1 | 1029.5 |
| 20260830111128 | 13 | 8 | 0.0 | 0.0 | 0.00 | 0.00 | 0.00 | 1 | 1029.5 |
| 20260830110126 | 13 | 8 | 0.0 | 0.0 | 0.00 | 0.00 | 0.00 | 1 | 1029.8 |
| 20260830105125 | 13 | 8 | 0.0 | 0.0 | 0.00 | 0.00 | 0.00 | 1 | 1029.5 |
| 20260830104124 | 13 | 8 | 0.0 | 0.0 | 0.00 | 0.00 | 0.00 | 1 | 1029.4 |
| 20260830103051 | 13 | 8 | 0.0 | 0.0 | 0.00 | 0.00 | 0.00 | 1 | 1029.1 |
| 20260830102049 | 13 | 8 | 0.0 | 0.0 | 0.00 | 0.00 | 0.00 | 1 | 1029.1 |
| 20260830101048 | 14 | 8 | 0.0 | 0.0 | 0.00 | 0.00 | 0.00 | 1 | 1029.1 |
| 20260830100047 | 15 | 8 | 0.0 | 0.0 | 0.00 | 0.00 | 0.00 | 1 | 1029.1 |
| 20260830094943 | 15 | 8 | 0.0 | 1.6 | 0.00 | 0.00 | 0.00 | 1 | 1029.1 |
| 20260830093942 | 15 | 8 | 0.0 | 3.2 | 0.00 | 0.00 | 0.00 | 1 | 1028.8 |
| 20260830092940 | 15 | 8 | 1.6 | 3.2 | 0.00 | 0.00 | 0.00 | 7 | 1028.8 |
| 20260830091938 | 16 | 8 | 0.0 | 3.2 | 0.00 | 0.00 | 0.00 | 19 | 1028.8 |
| 20260830090937 | 16 | 8 | 1.6 | 3.2 | 0.00 | 0.00 | 0.00 | 27 | 1028.8 |
| 20260830085936 | 16 | 8 | 1.6 | 3.2 | 0.00 | 0.00 | 0.00 | 29 | 1028.8 |
| 20260830084903 | 16 | 13 | 1.6 | 4.8 | 0.00 | 0.00 | 0.00 | 32 | 1028.8 |
| 20260830083901 | 17 | 13 | 0.0 | 4.8 | 0.00 | 0.00 | 0.00 | 35 | 1028.4 |
| 20260830082900 | 17 | 330 | 1.6 | 6.4 | 0.00 | 0.00 | 0.00 | 38 | 1028.4 |
| 20260830081858 | 17 | 83 | 3.2 | 6.4 | 0.00 | 0.00 | 0.00 | 43 | 1028.1 |
| 20260830080856 | 17 | 83 | 0.0 | 11.3 | 0.00 | 0.00 | 0.00 | 47 | 1028.1 |
| 20260830075854 | 17 | 67 | 3.2 | 12.9 | 0.00 | 0.00 | 0.00 | 49 | 1028.1 |
| 20260830074853 | 18 | 76 | 6.4 | 12.9 | 0.00 | 0.00 | 0.00 | 51 | 1028.1 |
| 20260830073852 | 18 | 82 | 4.8 | 11.3 | 0.00 | 0.00 | 0.00 | 55 | 1027.8 |
| 20260830072850 | 18 | 41 | 3.2 | 9.7 | 0.00 | 0.00 | 0.00 | 56 | 1027.8 |
| 20260830071747 | 18 | 80 | 3.2 | 9.7 | 0.00 | 0.00 | 0.00 | 56 | 1027.8 |
| 20260830070643 | 18 | 24 | 4.8 | 9.7 | 0.00 | 0.00 | 0.00 | 56 | 1027.8 |
| 20260830065641 | 18 | 65 | 3.2 | 9.7 | 0.00 | 0.00 | 0.00 | 56 | 1027.8 |
| 20260830064640 | 18 | 75 | 3.2 | 6.4 | 0.00 | 0.00 | 0.00 | 58 | 1027.8 |
| 20260830063638 | 19 | 114 | 3.2 | 6.4 | 0.00 | 0.00 | 0.00 | 59 | 1027.8 |
| 20260830062432 | 19 | 110 | 3.2 | 8.0 | 0.00 | 0.00 | 0.00 | 59 | 1027.8 |
| 20260830061430 | 19 | 106 | 1.6 | 9.7 | 0.00 | 0.00 | 0.00 | 58 | 1027.8 |
| 20260830060429 | 19 | 112 | 3.2 | 8.0 | 0.00 | 0.00 | 0.00 | 57 | 1027.8 |
| 20260830055428 | 19 | 113 | 3.2 | 8.0 | 0.00 | 0.00 | 0.00 | 57 | 1027.8 |
| 20260830054426 | 20 | 109 | 4.8 | 8.0 | 0.00 | 0.00 | 0.00 | 57 | 1027.8 |
| 20260830053425 | 20 | 104 | 3.2 | 9.7 | 0.00 | 0.00 | 0.00 | 57 | 1027.8 |
| 20260830052219 | 20 | 98 | 3.2 | 8.0 | 0.00 | 0.00 | 0.00 | 56 | 1027.8 |
| 20260830051146 | 20 | 112 | 1.6 | 8.0 | 0.00 | 0.00 | 0.00 | 56 | 1027.8 |
| 20260830050145 | 20 | 108 | 3.2 | 6.4 | 0.00 | 0.00 | 0.00 | 57 | 1027.8 |
| 20260830045143 | 20 | 109 | 3.2 | 6.4 | 0.00 | 0.00 | 0.00 | 57 | 1028.1 |
| 20260830044142 | 20 | 108 | 3.2 | 9.7 | 0.00 | 0.00 | 0.00 | 57 | 1028.1 |
| 20260830043140 | 20 | 101 | 4.8 | 9.7 | 0.00 | 0.00 | 0.00 | 55 | 1028.1 |
| 20260830042005 | 20 | 107 | 4.8 | 8.0 | 0.00 | 0.00 | 0.00 | 52 | 1027.8 |
| 20260830041003 | 20 | 104 | 3.2 | 9.7 | 0.00 | 0.00 | 0.00 | 54 | 1027.8 |